Regional Weather Roundup
Issued by NWS Upton, NY

Current Version | Previous Version | Graphics & Text | Print | Product List | Glossary Off
Versions: 1 2 3 4 5 6 7 8 9 10 11 12 13 14 15 16 17 18 19 20 21 22 23 24 25 26 27 28 29 30 31 32 33 34 35 36 37 38 39 40 41 42 43 44 45 46 47 48 49 50

333
ASUS41 KOKX 121009
RWROKX

REGIONAL WEATHER ROUNDUP
NATIONAL WEATHER SERVICE NEW YORK NY
500 AM EST TUE DEC 12 2017

NOTE: "FAIR" INDICATES FEW OR NO CLOUDS BELOW 12,000 FEET WITH NO
SIGNIFICANT WEATHER AND/OR OBSTRUCTIONS TO VISIBILITY.

NYZ071-072-176-178-NJZ106-104-121100-
NEW YORK CITY METRO AREA

CITY           SKY/WX    TMP DP  RH WIND       PRES   REMARKS
Central Park   CLOUDY    45  36  70 S6        29.77F
Bronx Bot Gard   N/A     39  32  75 CALM      29.78F
Bronx Lehman C   N/A     41  32  70 E1          N/A
LaGuardia APRT CLOUDY    45  36  70 S10G16    29.76F
Queens College   N/A     45  36  70 S13         N/A
Kennedy INTL   CLOUDY    46  37  71 S20G26    29.78F
Breezy Point     N/A     46 N/A N/A S20G25      N/A
Brooklyn Coll    N/A     46  37  71 S13         N/A
Staten Island    N/A     45  36  70 SE6         N/A
Newark/Liberty LGT RAIN  44  35  70 S8        29.75F
Teterboro      CLOUDY    44  35  70 S10       29.74F
$$

NYZ177-179-078>081-121100-
LONG ISLAND NEW YORK

CITY           SKY/WX    TMP DP  RH WIND       PRES   REMARKS
Jones Beach      N/A     46 N/A N/A S16G24      N/A
Wantagh          N/A     45  36  70 SE14        N/A
Matinecock PT    N/A     41 N/A N/A SE6         N/A
Farmingdale    CLOUDY    43  34  70 S15       29.78F
MacArthur/ISP  CLOUDY    43  34  70 S9        29.79F
Shirley        CLOUDY    40  33  76 S8        29.82F WCI  34
Mt Sinai Harb    N/A    N/A N/A N/A SE5         N/A
Westhampton    MOCLDY    40  32  73 S5        29.84F
East Hampton   CLOUDY    32  29  88 CALM      29.83F
Southold         N/A     37  32  81 E3          N/A
Montauk          N/A     45  34  65 S6        29.85F
$$

NYZ052-065-067-121100-
HUDSON VALLEY

CITY           SKY/WX    TMP DP  RH WIND       PRES   REMARKS
White Plains   CLOUDY    36  30  79 SE6       29.75F WCI  31
Larchmont Harb   N/A     41 N/A N/A E12         N/A
Croton On Huds   N/A     39 N/A N/A SE6         N/A  WCI  35
Somers           N/A     34  28  80 SE8         N/A  WCI  27
Brewster         N/A     34  28  80 SE3         N/A
Newburgh       MOCLDY    36  28  75 VRB7      29.74F WCI  30
Montgomery     CLOUDY    31  26  82 NE6       29.71F WCI  25
Otisville        N/A     30  27  86 NE2         N/A
Warwick          N/A     36  30  80 SE9         N/A  WCI  29
Suffern          N/A     34  30  86 E1          N/A
Poughkeepsie   CLOUDY    36  25  64 SE5       29.74F WCI  32
Albany         LGT SNOW  30  27  88 SE5       29.75F FOG     WCI  25
$$

NJZ001-105-106-008-010-013-015-019>022-104-121100-
NEW JERSEY

CITY           SKY/WX    TMP DP  RH WIND       PRES   REMARKS
Newark/Liberty LGT RAIN  44  35  70 S8        29.75F
Teterboro      CLOUDY    44  35  70 S10       29.74F
Caldwell       CLOUDY    35  29  78 CALM      29.74F
Somerville     CLOUDY    33  28  81 CALM      29.72F
Linden         CLOUDY    41  33  72 CALM      29.75F
Perth Amboy      N/A     41 N/A N/A SE9         N/A
Sussex         CLOUDY    37  28  70 CALM      29.71F
Andover        NOT AVBL
Trenton        CLOUDY    35  28  75 E5        29.71F WCI  31
Millville      MOCLDY    45  38  76 VRB7      29.72F
Atlantic City  PTCLDY    47  37  68 S12       29.74F
Wrightstown    CLOUDY    40  33  74 SE9       29.70F WCI  35
Toms River     MOCLDY    35  33  92 S3        29.75F
Belmar         CLOUDY    43  37  79 S8        29.76F
$$

PAZ047>061-062-071-121100-
EASTERN PENNSYLVANIA

CITY           SKY/WX    TMP DP  RH WIND       PRES   REMARKS
Philadelphia   CLOUDY    43  34  70 S12       29.71F
Allentown      CLOUDY    39  28  64 VRB6      29.68F WCI  35
Scranton       FLURRIES  36  29  75 VRB3      29.61F
$$

CTZ002-004>006-009-010-012-RIZ004-006-007-MAZ004-011-015-121100-
SOUTHERN NEW ENGLAND
 IN CT

CITY           SKY/WX    TMP DP  RH WIND       PRES   REMARKS
Bradley INTL   CLOUDY    30  24  78 NW3       29.83F
Hartford       CLOUDY    35  24  64 CALM      29.84F
Danbury        CLOUDY    35  26  69 SE3       29.78F
Wtrbury/Oxford CLOUDY    34  27  75 E7        29.78F WCI  28
Norwalk Harbor   N/A     41 N/A N/A SE20        N/A
Bridgeport     CLOUDY    42  31  64 SE13      29.80F
Meriden        CLOUDY    31  26  82 CALM      29.82F
New Haven      CLOUDY    42  30  62 SE9       29.81F
Chester        FAIR      34  25  69 CALM      29.82F
Groton         CLOUDY    37  27  67 N5        29.84F WCI  33
Wilimantic     CLOUDY    32  26  78 CALM      29.86F

 IN RI

CITY           SKY/WX    TMP DP  RH WIND       PRES   REMARKS
Providence     CLOUDY    36  30  79 E6        29.88F WCI  31
Block Island     N/A    N/A N/A N/A MISG        N/A
Westerly       CLOUDY    35  28  75 NE5       29.86F WCI  31
 IN MA

CITY           SKY/WX    TMP DP  RH WIND       PRES   REMARKS
Boston         CLOUDY    37  27  67 SE10      29.89F WCI  30
Worcester      CLOUDY    28  18  66 E6        29.82F WCI  22
Westfield      CLOUDY    29  26  89 N6        29.83F WCI  23
Provincetown   CLOUDY    37  29  72 E5        29.91F WCI  33
Nantucket      CLOUDY    43  35  73 SE13      29.88F
$$

ANZ330-335-338-340-345-350-353-355-121100-
COASTAL MARINE OBSERVATIONS


STATION/POSITION TIME  SKY/WX   TEMP    WIND        PRES    VSBY  WAVE
                                AIR SEA DIR/SP/G                  HT/PER
                 (UTC)          (F)     (DEG/KT/KT) (MB)    (MI)  (FT/S)
NY HARB ENTRANCE 0850            48 53  180/ 19/ 23 1008.8          3/ 4
20 S FIRE ISLAND 0850            46 53  180/ 16/ 19 1010.3          3/ 9
GREAT SOUTH BAY  0930            44 45  190/ 14/ 17   N/A
HUDSON CANYON    0850            48 56  180/ 12/ 16 1010.5          3/ 9
KINGS POINT      0930            43 45  190/  7/ 10 1008.9
EXECUTION ROCKS  0930            42     130/  8/ 10   N/A
WESTERN LI SOUND 0849            41     130/ 12/ 16   N/A           1
CENTRAL LI SOUND 0945            43     140/ 10/ 12   N/A           1
ROBBINS REEF     0930            46     170/ 16/ 19 1008.6
$$


>>>>>>>>>>>>>>>>>>>>>>>>>>>> KEY <<<<<<<<<<<<<<<<<<<<<<<<<<<
>                                                          <
>     SKY/WX - Sky Condition/Present Weather               <
>     TMP    - Temperature in Fahrenheit                   <
>     DP     - Dew Point in Fahrenheit                     <
>     RH     - Relative Humidity in Percent                <
>     WIND   - Direction (from) and Speed in MPH           <
>     PRES   - Mean Sea Level Pressure (inches of Hg)      <
>     WCI    - Wind Chill Index                            <
>     VSB    - VISIBILITY IN MILES                         <
>     HX     - HEAT INDEX                                  <
>     TC     - TEMPERATURE IN CELSIUS                      <
>     VRB    - VARIABLE WIND DIRECTION                     <
>                                                          <
>>>>>>>>>>>>>>>>>>>>>>>>>>>> KEY <<<<<<<<<<<<<<<<<<<<<<<<<<<




USA.gov is the U.S. government's official web portal to all federal, state and local government web resources and services.